Tracking 18823 objects as of 21-October-2017
HD Live streaming from Space Station
objects crossing your sky now

OPS 9314 (IDSCS 4)

Track OPS 9314 (IDSCS 4) now!
OPS 9314 (IDSCS 4) is classified as:


NORAD ID: 2218
Int'l Code: 1966-053E
Perigee: 33,696.0 km
Apogee: 34,025.1 km
Inclination: 2.9 °
Period: 1,338.5 minutes
Semi major axis: 40231 km
RCS: 0.1 m2 (medium)
Launch date: June 16, 1966
Source: United States (US)
Launch site: AIR FORCE EASTERN TEST RANGE (AFETR)
aabbcc
Your satellite tracking list
Your tracking list is empty





NASA's NSSDC Master Catalog

Two Line Element Set (TLE):
1 02218U 66053E   17293.84168394 -.00000117  00000-0  00000+0 0  9997
2 02218   2.8985  58.7586 0040904 124.9858 254.9993  1.07585261201380
Source of the keplerian elements: AFSPC